Regional Weather Roundup
Issued by NWS

Home | Current Version | Previous Version | Graphics & Text | Print | Product List | Glossary On
Versions: 1 2 3 4 5 6 7 8 9 10 11 12 13 14 15 16 17 18 19 20 21 22 23 24 25 26 27 28 29 30 31 32 33 34 35 36 37 38 39 40 41 42 43 44 45 46 47 48 49 50
000
ASUS43 KOAX 220402
RWRNE

WEATHER ROUNDUP FOR NEBRASKA
NATIONAL WEATHER SERVICE OMAHA NE
1100 PM CDT TUE OCT 21 2014

NOTES: SATELLITE DATA IS BEING USED TO AUGMENT CLOUD COVER ABOVE
       12000 FEET.
       "FAIR" INDICATES FEW OR NO CLOUDS BELOW 12,000 FEET WITH NO
       SIGNIFICANT WEATHER AND/OR OBSTRUCTIONS TO VISIBILITY.

  * THESE STATIONS DO NOT REPORT WEATHER SUCH AS RAIN...SNOW OR FOG.

NEZ001>004-019>022-054>056-220500-
NEBRASKA PANHANDLE

CITY           SKY/WX    TMP DP  RH WIND       PRES   REMARKS
SCOTTSBLUFF    CLOUDY    59  47  64 N3        29.88S
ALLIANCE       PTCLDY    50  43  77 SE7       29.88R
CHADRON        MOCLDY    63  44  50 S7        29.81S
KIMBALL        CLOUDY    60  42  50 N3        29.91F
SIDNEY         PTCLDY    57  41  55 S9        29.91R
$$

NEZ057>060-069>072-079>082-220500-
SOUTHWEST NEBRASKA

CITY           SKY/WX    TMP DP  RH WIND       PRES   REMARKS
NORTH PLATTE   MOCLDY    68  53  58 S16G24    29.91S
IMPERIAL       PTCLDY    61  47  59 S12       29.92R
LEXINGTON      PTCLDY    65  58  79 SE9       29.95R
MCCOOK         PTCLDY    65  52  62 S10       29.94R
OGALLALA       PTCLDY    64  52  64 S13       29.89S
$$

NEZ005>010-023>029-035>040-094-220500-
NORTH CENTRAL NEBRASKA

CITY           SKY/WX    TMP DP  RH WIND       PRES   REMARKS
VALENTINE      CLEAR     66  55  67 S21G28    29.85S
AINSWORTH      PTCLDY    62  52  69 S15G23    29.89S
BROKEN BOW     PTCLDY    61  53  75 SE13      29.94S
O`NEILL        CLEAR     62  43  50 SE15      29.95S
ORD            CLEAR     58  50  75 SE6       29.95R
THEDFORD       PTCLDY    66  57  73 S15       29.91R
$$

NEZ041-046>049-061>064-073>077-083>087-220500-
SOUTH CENTRAL NEBRASKA

CITY           SKY/WX    TMP DP  RH WIND       PRES   REMARKS
GRAND ISLAND   CLEAR     62  47  57 SE13      29.98S
AURORA         CLEAR     60  41  49 SE12      29.99F HAZE
HASTINGS       CLEAR     62  49  62 SE14      29.98S
HEBRON         CLEAR     60  47  63 SE9       30.02S
HOLDREGE       CLEAR     62  54  75 SE15      29.96S
KEARNEY *      CLEAR     61  52  72 SE15      29.97S
YORK           PTCLDY    59  41  51 SE14      30.01F
$$

NEZ011>018-030>034-042>045-220500-
NORTHEAST NEBRASKA

CITY           SKY/WX    TMP DP  RH WIND       PRES   REMARKS
NORFOLK        CLEAR     60  39  45 SE13      30.00F
ALBION         CLEAR     56  41  57 SE7       29.99S
BLAIR          CLEAR     60  41  49 SE8       30.06S
COLUMBUS *     CLEAR     61  37  41 SE10      30.03F
FREMONT        CLEAR     61  40  45 SE9       30.05S
TEKAMAH        PTCLDY    56  41  57 SE9       30.07R
WAYNE          CLEAR     59  39  47 SE13      30.03S
$$

NEZ050>053-065>068-078-088>093-220500-
SOUTHEAST NEBRASKA

CITY           SKY/WX    TMP DP  RH WIND       PRES   REMARKS
LINCOLN        CLEAR     62  41  46 SE12      30.05S
OMAHA EPPLEY   CLEAR     57  42  57 SE13      30.08R
BEATRICE       CLEAR     61  43  51 SE10      30.04S
FALLS CITY     CLEAR     54  42  64 E6        30.08S
NEBRASKA CITY  CLEAR     58  37  46 SE9       30.08S
PLATTSMOUTH    CLEAR     56  39  51 SE8       30.08R
$$

NEZ044-045-051>053-067-220500-
OMAHA AREA

CITY           SKY/WX    TMP DP  RH WIND       PRES   REMARKS
OMAHA EPPLEY   CLEAR     57  42  57 SE13      30.08R
BLAIR          CLEAR     60  41  49 SE8       30.06S
FREMONT        CLEAR     61  40  45 SE9       30.05S
OFFUTT AFB     CLEAR     55  45  69 E10       30.07S
PLATTSMOUTH    CLEAR     56  39  51 SE8       30.08R
WAHOO          FAIR      53  39  59 SE8       30.05S
$$



USA.gov is the U.S. government's official web portal to all federal, state and local government web resources and services.